Location: Unspecified
(0.0000°N, 0.0000°E)
Time: 13:31:21
(UTC+02:00)

NOAA 12 - Visible Passes

Search period start: 17 September 2014 00:00
Search period end: 27 September 2014 00:00
Orbit: 797 x 815 km, 98.7° (Epoch: 16 September)

Date Brightness Start Highest point End Pass type
(mag) Time Alt. Az. Time Alt. Az. Time Alt. Az.
17 Sep 5.1 20:28:55 10° SE 20:33:06 25° ENE 20:37:16 10° NNE visible
17 Sep 6.4 22:08:49 10° SSW 22:12:37 21° WSW 22:16:25 10° NW visible
18 Sep 5.3 21:43:00 10° S 21:47:52 41° WSW 21:52:45 10° NNW visible
19 Sep 4.1 21:17:53 10° S 21:23:07 82° WSW 21:28:21 10° NNW visible
20 Sep 4.2 20:53:19 10° SSE 20:58:21 49° ENE 21:03:23 10° N visible
21 Sep 5.0 20:29:24 10° SE 20:33:36 25° ENE 20:37:48 10° NNE visible
21 Sep 6.4 22:09:21 10° SSW 22:13:07 20° WSW 22:16:54 10° NW visible
22 Sep 5.3 21:43:31 10° S 21:48:23 40° WSW 21:53:15 10° NW visible
23 Sep 4.1 21:18:23 10° S 21:23:37 81° WSW 21:28:51 10° NNW visible
24 Sep 4.2 20:53:48 10° SSE 20:58:52 50° ENE 21:03:55 10° N visible
25 Sep 5.0 20:29:52 10° SE 20:34:07 25° ENE 20:38:21 10° NNE visible
25 Sep 6.4 22:09:52 10° SSW 22:13:37 20° WSW 22:17:23 10° WNW visible
26 Sep 5.3 21:44:01 10° S 21:48:53 40° WSW 21:53:45 10° NW visible
